Home > Time Zones > World Clock > Weather > India > Patna > Past weeks

Flag Weather past 2 weeks in Patna, Bihar, India

Now
77 °F

Haze.


Feels Like: 79 °F
Forecast: 66 / 85 °F
Wind: No wind

Location: Patna Airport

Current Time: Nov 1, 2014 at 7:37:28 PM

Latest Report: Nov 1, 2014 at 6:20 PM


Visibility: 1 mi

Pressure: 29.86 "Hg

Humidity: 79%

Dew point: 70 °F

Location of PatnaLocation

Historic Weather in Patna — Graph

°F

Patna temperature yesterday

Maximum temperature yesterday: 86 °F (at 1:20 PM)
Minimum temperature yesterday: 72 °F (at 5:20 AM)
Average temperature yesterday: 78 °F

Past Weeks' High & Low Weather Summary

 TemperatureHumidityPressure
High90 °F (Oct 24, 3:20 PM)100% (Oct 19, 5:20 AM)30.04 "Hg (Oct 19, 5:20 AM)
Low66 °F (Oct 19, 5:20 AM)49% (Oct 19, 2:20 PM)29.80 "Hg (Oct 19, 3:20 PM)
Average78 °F75%29.90 "Hg
* Reported Oct 17 6:20 PM — Nov 1 6:20 PM, Patna, Weather by CustomWeather, © 2014

Note: Actual official high and low records may vary slightly from our data, if they occured in-between our weather recording intervals... More about our weather records

Advertising

Patna weather history for previous 24 hours

 ConditionsComfort  
Time TempWeatherWind HumidityBarometerVisibility
6:20 PM
Nov 1
77 °FHaze.No wind79%29.86 "Hg1 mi
5:20 PM79 °FScattered clouds.2 mph74%29.83 "Hg1 mi
4:20 PM84 °FScattered clouds.3 mph62%29.83 "Hg1 mi
3:20 PM86 °FScattered clouds.6 mph59%29.83 "Hg2 mi
2:20 PM86 °FScattered clouds.5 mph59%29.83 "Hg2 mi
12:20 PM84 °FScattered clouds.2 mph66%29.89 "Hg1 mi
11:20 AM81 °FFog.2 mph79%29.92 "Hg1 mi
10:20 AM79 °FFog.3 mph84%29.92 "Hg1 mi
9:20 AM77 °FFog.No wind89%29.95 "Hg1 mi
8:20 AM75 °FFog.No wind89%29.95 "Hg1 mi
7:20 AM73 °FFog.No wind89%29.92 "Hg0 mi
6:20 AM72 °FFog.No wind94%29.89 "Hg0 mi
5:20 AM70 °FFog.No wind94%29.86 "Hg1 mi
12:20 AM73 °FFog.No wind89%29.86 "Hg1 mi
11:20 PM
Oct 31
73 °FFog.No wind89%29.89 "Hg1 mi
10:20 PM73 °FFog.No wind89%29.89 "Hg1 mi
9:20 PM75 °FFog.No wind89%29.89 "Hg1 mi
8:20 PM75 °FFog.No wind89%29.86 "Hg1 mi
7:20 PM75 °FFog.No wind89%29.86 "Hg1 mi
Weather by CustomWeather, © 2014

See weather overviewHow to use our weather pages